Location: *
(51.0333°S, 178.4667°E)
Time: 04:36:52
(UTC+00:00)

Sich 1 Rocket - Pass Details

Date: 15 November 2019
Orbit: 616 x 653 km, 82.5° (Epoch: 09 December)

Event Time Altitude Azimuth Distance (km) Brightness Sun altitude
Exits shadow 11:16:32 36° 318° (NW) 1,001 4.3 -20.1°
Maximum altitude 11:18:07 58° 256° (WSW) 740 4.0 -20.1°
Drops below altitude 10° 11:22:33 10° 176° (S) 2,026 7.4 -20.2°
Sets 11:24:50 0° 172° (S) 2,943 8.4 -20.3°
